• In Austria
  • List of Countries
  • For 7 days
  • Water Temperature
  • Satellite Maps
  • Weather Map
  • News
  • Weather Widgets
  • user-avatar
    Login

    Hourly Weather Artashat

    Today, 21 October, Saturday

    Time Temperature Precipitation Wind Pressure Humidity
    00:00 +4°C° 0 mm 0 mps 602 mmHg 41%
    01:00 +4°C° 0 mm 0 mps 602 mmHg 41%
    02:00 +3°C° 0 mm 0 mps 601 mmHg 42%
    03:00 +4°C° 0 mm 1 mps 601 mmHg 41%
    04:00 +4°C° 0 mm 1 mps 601 mmHg 41%
    05:00 +2°C° 0 mm 0 mps 600 mmHg 42%
    06:00 +2°C° 0 mm 0 mps 600 mmHg 42%
    07:00 +4°C° 0 mm 0 mps 601 mmHg 36%
    08:00 +7°C° 0 mm 0 mps 602 mmHg 31%
    09:00 +9°C° 0 mm 0 mps 603 mmHg 25%
    10:00 +11°C° 0 mm 1 mps 604 mmHg 23%
    11:00 +12°C° 0 mm 1 mps 604 mmHg 21%
    12:00 +13°C° 0 mm 1 mps 604 mmHg 20%
    13:00 +14°C° 0 mm 1 mps 603 mmHg 19%
    14:00 +14°C° 0 mm 1 mps 603 mmHg 19%
    15:00 +14°C° 0 mm 1 mps 603 mmHg 19%
    16:00 +12°C° 0 mm 1 mps 602 mmHg 22%
    17:00 +11°C° 0 mm 1 mps 601 mmHg 25%
    18:00 +9°C° 0 mm 1 mps 601 mmHg 29%
    19:00 +8°C° 0 mm 1 mps 601 mmHg 30%
    20:00 +8°C° 0 mm 1 mps 600 mmHg 31%
    21:00 +7°C° 0 mm 1 mps 600 mmHg 32%
    22:00 +7°C° 0 mm 1 mps 600 mmHg 32%
    23:00 +6°C° 0 mm 1 mps 600 mmHg 32%

    Tomorrow, 22 October, Sunday

    Time Temperature Precipitation Wind Pressure Humidity
    00:00 +6°C° 0 mm 1 mps 600 mmHg 33%
    01:00 +5°C° 0 mm 1 mps 600 mmHg 33%
    02:00 +5°C° 0 mm 1 mps 599 mmHg 34%
    03:00 +5°C° 0 mm 1 mps 599 mmHg 34%
    04:00 +4°C° 0 mm 1 mps 599 mmHg 35%
    05:00 +4°C° 0 mm 1 mps 599 mmHg 36%
    06:00 +3°C° 0 mm 2 mps 599 mmHg 37%
    07:00 +5°C° 0 mm 2 mps 600 mmHg 33%
    08:00 +7°C° 0 mm 2 mps 600 mmHg 29%
    09:00 +9°C° 0 mm 2 mps 601 mmHg 25%
    10:00 +10°C° 0 mm 2 mps 601 mmHg 23%
    11:00 +11°C° 0 mm 3 mps 602 mmHg 22%
    12:00 +12°C° 0 mm 3 mps 602 mmHg 20%
    13:00 +13°C° 0 mm 4 mps 601 mmHg 19%
    14:00 +13°C° 0 mm 4 mps 601 mmHg 19%
    15:00 +13°C° 0 mm 4 mps 601 mmHg 19%
    16:00 +12°C° 0 mm 4 mps 600 mmHg 21%
    17:00 +10°C° 0 mm 3 mps 600 mmHg 24%
    18:00 +9°C° 0 mm 3 mps 599 mmHg 26%
    19:00 +8°C° 0 mm 3 mps 599 mmHg 28%
    20:00 +7°C° 0 mm 3 mps 599 mmHg 30%
    21:00 +7°C° 0 mm 3 mps 599 mmHg 32%
    22:00 +5°C° 0 mm 3 mps 599 mmHg 33%
    23:00 +5°C° 0 mm 3 mps 599 mmHg 34%

    Day after tomorrow, 23 October, Monday

    Time Temperature Precipitation Wind Pressure Humidity
    00:00 +5°C° 0 mm 2 mps 599 mmHg 36%
    01:00 +5°C° 0 mm 2 mps 599 mmHg 37%
    02:00 +5°C° 0 mm 2 mps 599 mmHg 38%
    03:00 +4°C° 0 mm 2 mps 599 mmHg 40%
    04:00 +4°C° 0 mm 2 mps 599 mmHg 41%
    05:00 +3°C° 0 mm 2 mps 599 mmHg 42%
    06:00 +3°C° 0 mm 2 mps 599 mmHg 43%
    07:00 +5°C° 0 mm 2 mps 600 mmHg 38%
    08:00 +8°C° 0 mm 1 mps 601 mmHg 34%
    09:00 +10°C° 0 mm 1 mps 602 mmHg 29%
    10:00 +11°C° 0 mm 1 mps 602 mmHg 27%
    11:00 +12°C° 0 mm 2 mps 602 mmHg 24%
    12:00 +13°C° 0 mm 2 mps 602 mmHg 22%
    13:00 +13°C° 0 mm 2 mps 602 mmHg 22%
    14:00 +14°C° 0 mm 2 mps 602 mmHg 21%
    15:00 +13°C° 0 mm 3 mps 602 mmHg 20%
    16:00 +12°C° 0 mm 2 mps 602 mmHg 24%
    17:00 +10°C° 0 mm 2 mps 601 mmHg 27%
    18:00 +8°C° 0 mm 2 mps 601 mmHg 30%
    19:00 +7°C° 0 mm 2 mps 601 mmHg 32%
    20:00 +8°C° 0 mm 1 mps 601 mmHg 33%
    21:00 +7°C° 0 mm 1 mps 601 mmHg 34%
    22:00 +7°C° 0 mm 1 mps 601 mmHg 35%
    23:00 +7°C° 0 mm 1 mps 601 mmHg 36%

    24 October, Tuesday

    Time Temperature Precipitation Wind Pressure Humidity
    00:00 +6°C° 0 mm 1 mps 600 mmHg 36%
    01:00 +6°C° 0 mm 1 mps 600 mmHg 36%
    02:00 +6°C° 0 mm 1 mps 600 mmHg 36%
    03:00 +5°C° 0 mm 1 mps 600 mmHg 36%
    04:00 +5°C° 0 mm 1 mps 600 mmHg 36%
    05:00 +5°C° 0 mm 1 mps 600 mmHg 37%
    06:00 +5°C° 0 mm 1 mps 600 mmHg 37%
    07:00 +7°C° 0 mm 1 mps 601 mmHg 33%
    08:00 +9°C° 0 mm 1 mps 602 mmHg 28%
    09:00 +11°C° 0 mm 1 mps 604 mmHg 24%
    10:00 +12°C° 0 mm 2 mps 604 mmHg 23%
    11:00 +12°C° 0 mm 3 mps 604 mmHg 21%
    12:00 +14°C° 0 mm 3 mps 604 mmHg 20%
    13:00 +14°C° 0 mm 3 mps 604 mmHg 20%
    14:00 +14°C° 0 mm 4 mps 604 mmHg 20%
    15:00 +14°C° 0 mm 4 mps 604 mmHg 20%
    16:00 +13°C° 0 mm 3 mps 604 mmHg 24%
    17:00 +11°C° 0 mm 3 mps 603 mmHg 27%
    18:00 +9°C° 0 mm 2 mps 603 mmHg 31%
    19:00 +9°C° 0 mm 2 mps 603 mmHg 33%
    20:00 +8°C° 0 mm 2 mps 603 mmHg 35%
    21:00 +8°C° 0 mm 2 mps 603 mmHg 37%
    22:00 +7°C° 0 mm 2 mps 603 mmHg 38%
    23:00 +7°C° 0 mm 2 mps 603 mmHg 39%

    25 October, Wednesday

    Time Temperature Precipitation Wind Pressure Humidity
    00:00 +7°C° 0 mm 2 mps 603 mmHg 40%
    01:00 +8°C° 0 mm 1 mps 603 mmHg 40%
    02:00 +7°C° 0 mm 1 mps 603 mmHg 41%
    03:00 +7°C° 0 mm 1 mps 603 mmHg 42%
    04:00 +7°C° 0 mm 1 mps 603 mmHg 43%
    05:00 +6°C° 0 mm 1 mps 603 mmHg 43%
    06:00 +6°C° 0 mm 1 mps 603 mmHg 44%
    07:00 +7°C° 0 mm 2 mps 604 mmHg 39%
    08:00 +9°C° 0 mm 2 mps 605 mmHg 33%
    09:00 +13°C° 0 mm 2 mps 607 mmHg 28%
    10:00 +14°C° 0 mm 2 mps 607 mmHg 26%
    11:00 +15°C° 0 mm 2 mps 607 mmHg 24%
    12:00 +16°C° 0 mm 3 mps 607 mmHg 22%
    13:00 +17°C° 0 mm 3 mps 607 mmHg 22%
    14:00 +17°C° 0 mm 3 mps 606 mmHg 21%
    15:00 +17°C° 0 mm 3 mps 606 mmHg 21%
    16:00 +14°C° 0 mm 3 mps 606 mmHg 24%
    17:00 +13°C° 0 mm 2 mps 605 mmHg 27%
    18:00 +12°C° 0 mm 2 mps 605 mmHg 31%
    19:00 +10°C° 0 mm 2 mps 605 mmHg 32%
    20:00 +10°C° 0 mm 2 mps 605 mmHg 33%
    21:00 +9°C° 0 mm 2 mps 605 mmHg 35%
    22:00 +9°C° 0 mm 2 mps 605 mmHg 35%
    23:00 +8°C° 0 mm 2 mps 605 mmHg 36%

    26 October, Thursday

    Time Temperature Precipitation Wind Pressure Humidity
    00:00 +8°C° 0 mm 2 mps 605 mmHg 37%
    01:00 +8°C° 0 mm 2 mps 604 mmHg 37%
    02:00 +8°C° 0 mm 2 mps 604 mmHg 37%
    03:00 +8°C° 0 mm 2 mps 604 mmHg 38%
    04:00 +7°C° 0 mm 2 mps 604 mmHg 39%
    05:00 +7°C° 0 mm 2 mps 604 mmHg 39%
    06:00 +7°C° 0 mm 2 mps 604 mmHg 40%
    07:00 +9°C° 0 mm 2 mps 605 mmHg 36%
    08:00 +12°C° 0 mm 2 mps 606 mmHg 32%
    09:00 +14°C° 0 mm 2 mps 607 mmHg 27%
    10:00 +16°C° 0 mm 2 mps 607 mmHg 25%
    11:00 +17°C° 0 mm 3 mps 607 mmHg 24%
    12:00 +18°C° 0 mm 3 mps 607 mmHg 22%
    13:00 +18°C° 0 mm 3 mps 607 mmHg 22%
    14:00 +18°C° 0 mm 3 mps 606 mmHg 21%
    15:00 +19°C° 0 mm 3 mps 606 mmHg 21%
    16:00 +17°C° 0 mm 3 mps 605 mmHg 25%
    17:00 +15°C° 0 mm 2 mps 605 mmHg 29%
    18:00 +13°C° 0 mm 2 mps 604 mmHg 33%
    19:00 +12°C° 0 mm 2 mps 604 mmHg 34%
    20:00 +12°C° 0 mm 2 mps 604 mmHg 36%
    21:00 +10°C° 0 mm 2 mps 604 mmHg 37%
    22:00 +10°C° 0 mm 2 mps 603 mmHg 38%
    23:00 +10°C° 0 mm 2 mps 603 mmHg 38%
    Show more